Weather History for Madisonville, KY

Change the Weather History Date:

Monday, April 7, 2014

  Actual Average (KOWB) Record (KOWB)
Temperature  
Mean Temperature 52 °F -  
Max Temperature 58 °F 66 °F 85 °F (1959)
Min Temperature 45 °F 40 °F 24 °F (1982)
Degree Days  
Heating Degree Days 13    
Growing Degree Days 2 (Base 50)    
Moisture  
Dew Point 50 °F    
Average Humidity 92    
Maximum Humidity 100    
Minimum Humidity 65    
Precipitation  
Precipitation 0.63 in - - ()
Sea Level Pressure  
Sea Level Pressure 29.64 in    
Wind  
Wind Speed 8 mph (NW)    
Max Wind Speed 23 mph    
Max Gust Speed 30 mph    
Visibility 7 miles    
Events Rain    
Averages and records for this station are not official NWS values.
T = Trace of Precipitation, MM = Missing Value Source: NWS Daily Summary

Daily Weather History Graph

Daily Weather History Graph

Search for Another Location

Airport:

Trip Planner

Search our weather history database for the weather conditions in past years. The results will help you decide how hot, cold, wet, or windy it might be!

Date:

Astronomy

Apr. 07, 2014 Rise Set
Actual Time 6:26 AM CDT 7:17 PM CDT
Civil Twilight 5:59 AM CDT 7:44 PM CDT
Nautical Twilight 5:28 AM CDT 8:15 PM CDT
Astronomical Twilight 4:56 AM CDT 8:48 PM CDT
Moon 12:25 PM CDT (4/7) 1:51 AM CDT (4/7)
Length of Visible Light 13h 44m
Length of Day
12h 51m
First Quarter, 53% of the Moon is Illuminated
Apr 7
First Quarter
Apr 15
Full
Apr 22
Last Quarter
Apr 29
New
May 6
First Quarter

Hourly Weather History & Observations

Time (CDT) Temp. Windchill Dew Point Humidity Pressure Visibility Wind Dir Wind Speed Gust Speed Precip Events Conditions
12:15 AM 56.3 °F - 44.6 °F 65% 29.84 in 10.0 mi Calm Calm - N/A Rain Light Rain
12:35 AM 55.4 °F - 46.2 °F 71% 29.82 in 10.0 mi Calm Calm - N/A   Overcast
12:55 AM 55.6 °F - 44.6 °F 67% 29.80 in 10.0 mi SE 3.5 mph - N/A   Overcast
1:15 AM 55.4 °F - 44.6 °F 67% 29.79 in 10.0 mi SSE 5.8 mph - N/A   Overcast
1:35 AM 54.9 °F - 45.7 °F 71% 29.79 in 10.0 mi SSE 4.6 mph - N/A   Overcast
1:55 AM 54.7 °F - 46.2 °F 73% 29.76 in 10.0 mi SE 5.8 mph - N/A   Overcast
2:15 AM 54.9 °F - 47.1 °F 75% 29.74 in 10.0 mi ESE 8.1 mph - N/A   Overcast
2:35 AM 54.9 °F - 47.3 °F 76% 29.73 in 10.0 mi SE 6.9 mph - N/A   Overcast
2:55 AM 54.5 °F - 47.3 °F 77% 29.73 in 10.0 mi SE 5.8 mph - N/A   Overcast
3:15 AM 54.5 °F - 47.8 °F 78% 29.73 in 10.0 mi ESE 4.6 mph - N/A   Overcast
3:35 AM 54.0 °F - 48.4 °F 81% 29.73 in 10.0 mi ESE 6.9 mph - N/A   Light Drizzle
3:55 AM 54.0 °F - 48.7 °F 82% 29.72 in 10.0 mi East 8.1 mph - N/A   Overcast
4:15 AM 53.1 °F - 50.0 °F 89% 29.72 in 10.0 mi NE 3.5 mph - N/A   Overcast
4:35 AM 52.7 °F - 50.4 °F 92% 29.68 in 10.0 mi East 8.1 mph - N/A   Overcast
4:55 AM 53.1 °F - 51.3 °F 94% 29.70 in 5.0 mi East 5.8 mph - N/A   Drizzle
5:15 AM 52.5 °F - 51.8 °F 97% 29.65 in 4.0 mi ENE 9.2 mph - 0.01 in Rain Light Rain
5:35 AM 52.0 °F - 51.8 °F 99% 29.63 in 7.0 mi ENE 10.4 mph - 0.01 in   Overcast
5:55 AM 51.8 °F - 51.8 °F 100% 29.63 in 7.0 mi ENE 10.4 mph - 0.01 in   Overcast
6:15 AM 52.0 °F - 52.0 °F 100% 29.67 in 4.0 mi NE 4.6 mph - N/A   Drizzle
6:35 AM 51.8 °F - 51.8 °F 100% 29.64 in 3.0 mi ENE 9.2 mph - 0.03 in Rain Heavy Rain
7:15 AM 51.3 °F - 51.3 °F 100% 29.62 in 1.8 mi ENE 10.4 mph - N/A   Drizzle
7:35 AM 51.8 °F - 51.8 °F 100% 29.63 in 1.5 mi East 4.6 mph - 0.01 in   Drizzle
7:55 AM 52.7 °F - 52.7 °F 100% 29.57 in 2.0 mi ESE 9.2 mph - 0.02 in Rain Rain
8:15 AM 53.2 °F - 53.2 °F 100% 29.57 in 3.0 mi NE 6.9 mph - 0.01 in Rain Rain
8:35 AM 53.8 °F - 53.8 °F 100% 29.52 in 4.0 mi ENE 11.5 mph - 0.01 in Rain Light Rain
8:55 AM 54.0 °F - 54.0 °F 100% 29.54 in 3.0 mi NNE 5.8 mph - 0.05 in Rain Light Rain
9:15 AM 54.1 °F - 54.1 °F 100% 29.51 in 0.2 mi NE 9.2 mph - 0.44 in Rain Light Rain
9:35 AM 54.7 °F - 54.7 °F 100% 29.51 in 5.0 mi ENE 5.8 mph - 0.46 in Rain Rain
9:55 AM 54.9 °F - 54.9 °F 100% 29.53 in 3.0 mi NNW 13.8 mph - 0.49 in Rain Heavy Rain
10:15 AM 55.0 °F - 55.0 °F 100% 29.53 in 2.5 mi NNE 5.8 mph - 0.02 in Rain Rain
10:55 AM 55.9 °F - 55.9 °F 100% 29.49 in 10.0 mi East 9.2 mph - 0.03 in   Overcast
11:15 AM 56.3 °F - 56.3 °F 100% 29.48 in 10.0 mi East 4.6 mph - N/A   Overcast
11:35 AM 57.2 °F - 57.2 °F 100% 29.47 in 10.0 mi ESE 4.6 mph - N/A   Overcast
11:55 AM 57.4 °F - 57.4 °F 100% 29.47 in 10.0 mi SE 3.5 mph - N/A   Overcast
12:15 PM 58.1 °F - 58.1 °F 100% 29.47 in 10.0 mi SW 4.6 mph - N/A   Overcast
12:35 PM 58.1 °F - 58.1 °F 100% 29.47 in 10.0 mi WSW 6.9 mph - N/A   Overcast
12:55 PM 58.1 °F - 57.9 °F 99% 29.47 in 4.0 mi WSW 10.4 mph - N/A Rain Light Rain
1:15 PM 56.7 °F - 56.7 °F 100% 29.47 in 4.0 mi West 11.5 mph - N/A   Overcast
1:35 PM 55.9 °F - 55.9 °F 100% 29.48 in 5.0 mi West 10.4 mph - N/A   Overcast
1:55 PM 56.3 °F - 56.3 °F 100% 29.48 in 7.0 mi West 11.5 mph - N/A   Overcast
2:15 PM 56.1 °F - 55.6 °F 98% 29.49 in 10.0 mi West 11.5 mph - N/A   Overcast
2:35 PM 55.2 °F - 54.7 °F 98% 29.49 in 10.0 mi West 15.0 mph - N/A   Overcast
2:55 PM 54.3 °F - 54.0 °F 99% 29.50 in 1.8 mi WNW 18.4 mph - N/A   Drizzle
3:20 PM 53.2 °F - 52.9 °F 99% 29.51 in 2.5 mi WNW 23.0 mph 26.5 mph N/A Rain Rain
3:35 PM 50.9 °F - 50.2 °F 97% 29.52 in 4.0 mi WNW 20.7 mph 27.6 mph N/A   Overcast
3:55 PM 50.2 °F - 49.5 °F 97% 29.53 in 5.0 mi WNW 19.6 mph 25.3 mph N/A   Overcast
4:15 PM 49.8 °F - 48.7 °F 96% 29.55 in 7.0 mi WNW 19.6 mph 25.3 mph N/A   Overcast
4:35 PM 50.0 °F - 48.6 °F 95% 29.56 in 7.0 mi WNW 13.8 mph 25.3 mph N/A   Overcast
4:55 PM 49.6 °F - 48.0 °F 94% 29.58 in 7.0 mi WNW 16.1 mph 26.5 mph N/A   Overcast
5:15 PM 49.1 °F - 47.5 °F 94% 29.59 in 5.0 mi NW 20.7 mph 27.6 mph N/A   Overcast
5:35 PM 48.6 °F - 46.8 °F 93% 29.61 in 10.0 mi WNW 15.0 mph 29.9 mph N/A   Overcast
5:55 PM 48.2 °F - 46.4 °F 93% 29.63 in 5.0 mi WNW 15.0 mph 23.0 mph N/A   Overcast
6:15 PM 47.7 °F - 46.2 °F 95% 29.65 in 5.0 mi WNW 11.5 mph 19.6 mph N/A   Overcast
6:35 PM 47.5 °F - 46.0 °F 95% 29.67 in 5.0 mi WNW 15.0 mph 24.2 mph N/A   Overcast
6:55 PM 47.7 °F - 46.4 °F 95% 29.68 in 7.0 mi WNW 13.8 mph 21.9 mph N/A   Overcast
7:15 PM 47.8 °F - 46.0 °F 93% 29.69 in 10.0 mi WNW 15.0 mph 24.2 mph N/A Rain Light Rain
7:35 PM 47.3 °F - 45.3 °F 93% 29.70 in 10.0 mi WNW 13.8 mph 21.9 mph N/A   Overcast
7:55 PM 47.3 °F - 44.8 °F 91% 29.72 in 10.0 mi WNW 15.0 mph 24.2 mph N/A   Overcast
8:15 PM 47.3 °F - 44.6 °F 90% 29.74 in 10.0 mi WNW 13.8 mph 23.0 mph N/A   Overcast
8:35 PM 47.3 °F - 43.9 °F 88% 29.75 in 10.0 mi WNW 15.0 mph 23.0 mph N/A   Overcast
8:55 PM 47.3 °F - 43.9 °F 88% 29.76 in 10.0 mi WNW 15.0 mph 20.7 mph N/A   Overcast
9:15 PM 47.3 °F - 44.4 °F 90% 29.78 in 10.0 mi West 11.5 mph 18.4 mph N/A   Overcast
9:35 PM 47.3 °F - 44.2 °F 89% 29.79 in 10.0 mi West 13.8 mph - N/A   Overcast
9:55 PM 47.3 °F - 44.1 °F 88% 29.80 in 10.0 mi WNW 10.4 mph - N/A   Overcast
10:15 PM 47.5 °F - 44.2 °F 89% 29.79 in 10.0 mi West 12.7 mph 18.4 mph N/A   Overcast
10:35 PM 47.5 °F - 44.6 °F 90% 29.79 in 10.0 mi West 10.4 mph - N/A   Overcast
10:55 PM 47.5 °F - 44.6 °F 90% 29.79 in 10.0 mi West 8.1 mph - N/A   Overcast
11:15 PM 47.3 °F - 44.8 °F 91% 29.79 in 10.0 mi WSW 5.8 mph - N/A   Overcast
11:35 PM 46.8 °F - 45.0 °F 93% 29.78 in 10.0 mi WSW 5.8 mph - N/A   Overcast
11:55 PM 45.9 °F 42.3 °F 44.6 °F 95% 29.79 in 10.0 mi SW 6.9 mph - N/A   Overcast